| time (UTC) | temp C | wind direction | speed KPH | gust KPH | rain 1hr cm | rain 24hr cm | rain mn cm | humidity % | barometer mb |
| 20260906053459 | -17 | 209 | 1.6 | 4.8 | 0.00 | 0.00 | 0.00 | 1016.4 | |
| 20260906052954 | -17 | 209 | 1.6 | 4.8 | 0.00 | 0.00 | 0.00 | 1016.4 | |
| 20260906052450 | -17 | 209 | 1.6 | 4.8 | 0.00 | 0.00 | 0.00 | 1016.4 | |
| 20260906051947 | -17 | 209 | 1.6 | 4.8 | 0.00 | 0.00 | 0.00 | 1016.4 | |
| 20260906051442 | -17 | 209 | 1.6 | 4.8 | 0.00 | 0.00 | 0.00 | 1016.4 | |
| 20260906050938 | -17 | 209 | 1.6 | 4.8 | 0.00 | 0.00 | 0.00 | 1016.4 | |
| 20260906050437 | -17 | 209 | 1.6 | 4.8 | 0.00 | 0.00 | 0.00 | 1016.4 | |
| 20260906045937 | -17 | 209 | 1.6 | 4.8 | 0.00 | 0.00 | 0.00 | 1016.0 | |
| 20260906045435 | -17 | 167 | 4.8 | 6.4 | 0.00 | 0.00 | 0.00 | 1016.0 | |
| 20260906044931 | -17 | 167 | 4.8 | 6.4 | 0.00 | 0.00 | 0.00 | 1016.0 | |
| 20260906044426 | -17 | 167 | 4.8 | 6.4 | 0.00 | 0.00 | 0.00 | 1016.0 | |
| 20260906043922 | -17 | 167 | 4.8 | 6.4 | 0.00 | 0.00 | 0.00 | 1016.0 | |
| 20260906043417 | -17 | 167 | 4.8 | 6.4 | 0.00 | 0.00 | 0.00 | 1016.0 | |
| 20260906042913 | -17 | 167 | 4.8 | 6.4 | 0.00 | 0.00 | 0.00 | 1016.0 | |
| 20260906042412 | -17 | 167 | 4.8 | 6.4 | 0.00 | 0.00 | 0.00 | 1016.0 | |
| 20260906041907 | -17 | 167 | 4.8 | 6.4 | 0.00 | 0.00 | 0.00 | 1016.0 | |
| 20260906041403 | -17 | 167 | 4.8 | 6.4 | 0.00 | 0.00 | 0.00 | 1016.0 | |
| 20260906040903 | -17 | 143 | 4.8 | 6.4 | 0.00 | 0.00 | 0.00 | 1016.0 | |
| 20260906040358 | -17 | 143 | 4.8 | 6.4 | 0.00 | 0.00 | 0.00 | 1016.0 | |
| 20260906035854 | -17 | 0.0 | 0.0 | 0.00 | 0.00 | 0.00 | 1016.2 | ||
| 20260906035349 | -17 | 0.0 | 0.0 | 0.00 | 0.00 | 0.00 | 1016.2 | ||
| 20260906034844 | -17 | 122 | 3.2 | 6.4 | 0.00 | 0.00 | 0.00 | 1016.2 | |
| 20260906034338 | -17 | 122 | 3.2 | 6.4 | 0.00 | 0.00 | 0.00 | 1016.2 | |
| 20260906033835 | -17 | 122 | 3.2 | 6.4 | 0.00 | 0.00 | 0.00 | 1016.2 | |
| 20260906033334 | -17 | 122 | 3.2 | 6.4 | 0.00 | 0.00 | 0.00 | 1016.2 | |
| 20260906032830 | -17 | 122 | 3.2 | 6.4 | 0.00 | 0.00 | 0.00 | 1016.0 | |
| 20260906032326 | -17 | 122 | 3.2 | 6.4 | 0.00 | 0.00 | 0.00 | 1016.0 | |
| 20260906031821 | -17 | 122 | 3.2 | 6.4 | 0.00 | 0.00 | 0.00 | 1016.0 | |
| 20260906031316 | -17 | 122 | 3.2 | 6.4 | 0.00 | 0.00 | 0.00 | 1016.0 | |
| 20260906030816 | -17 | 122 | 3.2 | 6.4 | 0.00 | 0.00 | 0.00 | 1015.5 | |
| 20260906030311 | -17 | 122 | 3.2 | 6.4 | 0.00 | 0.00 | 0.00 | 1015.5 | |
| 20260906025811 | -17 | 122 | 3.2 | 6.4 | 0.00 | 0.00 | 0.00 | 1015.5 | |
| 20260906025306 | -17 | 122 | 3.2 | 6.4 | 0.00 | 0.00 | 0.00 | 1015.5 | |
| 20260906024804 | -17 | 0.0 | 0.0 | 0.00 | 0.00 | 0.00 | 1015.5 | ||
| 20260906024303 | -17 | 0.0 | 0.0 | 0.00 | 0.00 | 0.00 | 1015.5 | ||
| 20260906023759 | -17 | 210 | 1.6 | 3.2 | 0.00 | 0.00 | 0.00 | 1015.3 | |
| 20260906023254 | -17 | 210 | 1.6 | 3.2 | 0.00 | 0.00 | 0.00 | 1015.3 | |
| 20260906022750 | -17 | 210 | 1.6 | 3.2 | 0.00 | 0.00 | 0.00 | 1015.3 | |
| 20260906022244 | -17 | 210 | 1.6 | 3.2 | 0.00 | 0.00 | 0.00 | 1014.8 | |
| 20260906021741 | -17 | 210 | 1.6 | 3.2 | 0.00 | 0.00 | 0.00 | 1015.0 | |
| 20260906021234 | -17 | 210 | 1.6 | 3.2 | 0.00 | 0.00 | 0.00 | 1014.9 | |
| 20260906020729 | -17 | 210 | 1.6 | 3.2 | 0.00 | 0.00 | 0.00 | 1014.7 | |
| 20260906020224 | -17 | 210 | 1.6 | 3.2 | 0.00 | 0.00 | 0.00 | 1014.7 | |
| 20260906015724 | -17 | 210 | 1.6 | 3.2 | 0.00 | 0.00 | 0.00 | 1014.3 | |
| 20260906015222 | -17 | 210 | 1.6 | 3.2 | 0.00 | 0.00 | 0.00 | 1014.3 | |
| 20260906014717 | -17 | 210 | 1.6 | 3.2 | 0.00 | 0.00 | 0.00 | 1014.3 | |
| 20260906014213 | -17 | 210 | 1.6 | 3.2 | 0.00 | 0.00 | 0.00 | 1014.1 | |
| 20260906013709 | -17 | 354 | 1.6 | 3.2 | 0.00 | 0.00 | 0.00 | 1014.3 | |
| 20260906013208 | -17 | 179 | 4.8 | 8.0 | 0.00 | 0.00 | 0.00 | 1014.2 | |
| 20260906012703 | -17 | 182 | 3.2 | 6.4 | 0.00 | 0.00 | 0.00 | 1014.1 | |
| 20260906012158 | -17 | 182 | 3.2 | 6.4 | 0.00 | 0.00 | 0.00 | 1013.9 | |
| 20260906011653 | -17 | 198 | 8.0 | 8.0 | 0.00 | 0.00 | 0.00 | 1013.9 | |
| 20260906011148 | -17 | 200 | 0.0 | 4.8 | 0.00 | 0.00 | 0.00 | 1013.9 | |
| 20260906010638 | -17 | 150 | 6.4 | 11.3 | 0.00 | 0.00 | 0.00 | 1014.0 | |
| 20260906010134 | -17 | 150 | 6.4 | 11.3 | 0.00 | 0.00 | 0.00 | 1013.9 | |
| 20260906005633 | -17 | 150 | 6.4 | 11.3 | 0.00 | 0.00 | 0.00 | 1013.8 | |
| 20260906005133 | -17 | 150 | 6.4 | 11.3 | 0.00 | 0.00 | 0.00 | 1013.9 | |
| 20260906004632 | -17 | 150 | 6.4 | 11.3 | 0.00 | 0.00 | 0.00 | 1013.9 | |
| 20260906004127 | -17 | 150 | 6.4 | 11.3 | 0.00 | 0.00 | 0.00 | 1013.5 | |
| 20260906003622 | -17 | 150 | 6.4 | 11.3 | 0.00 | 0.00 | 0.00 | 1013.8 | |
| 20260906003118 | -17 | 150 | 6.4 | 11.3 | 0.00 | 0.00 | 0.00 | 1013.8 | |
| 20260906002613 | -17 | 150 | 6.4 | 11.3 | 0.00 | 0.00 | 0.00 | 1013.6 | |
| 20260906002108 | -17 | 195 | 1.6 | 3.2 | 0.00 | 0.00 | 0.00 | 1013.7 | |
| 20260906001602 | -17 | 195 | 1.6 | 3.2 | 0.00 | 0.00 | 0.00 | 1013.8 | |
| 20260906001057 | -17 | 195 | 1.6 | 3.2 | 0.00 | 0.00 | 0.00 | 1013.6 | |
| 20260906000553 | -17 | 195 | 1.6 | 3.2 | 0.00 | 0.00 | 0.00 | 1013.5 | |
| 20260906000048 | -17 | 195 | 1.6 | 3.2 | 0.00 | 0.00 | 0.00 | 1013.7 | |
| 20260905235547 | -17 | 195 | 1.6 | 3.2 | 0.00 | 0.00 | 0.00 | 1013.6 | |
| 20260905235043 | -17 | 195 | 1.6 | 3.2 | 0.00 | 0.00 | 0.00 | 1013.7 | |
| 20260905234538 | -17 | 195 | 1.6 | 3.2 | 0.00 | 0.00 | 0.00 | 1013.2 | |
| 20260905234033 | -17 | 195 | 1.6 | 3.2 | 0.00 | 0.00 | 0.00 | 1013.3 | |
| 20260905233532 | -17 | 195 | 1.6 | 3.2 | 0.00 | 0.00 | 0.00 | 1013.5 | |
| 20260905233027 | -17 | 195 | 1.6 | 3.2 | 0.00 | 0.00 | 0.00 | 1013.3 | |
| 20260905232523 | -17 | 202 | 0.0 | 6.4 | 0.00 | 0.00 | 0.00 | 1013.3 | |
| 20260905232018 | -17 | 202 | 0.0 | 6.4 | 0.00 | 0.00 | 0.00 | 1013.3 | |
| 20260905231513 | -17 | 202 | 0.0 | 6.4 | 0.00 | 0.00 | 0.00 | 1013.3 | |
| 20260905231010 | -17 | 202 | 0.0 | 6.4 | 0.00 | 0.00 | 0.00 | 1013.5 | |
| 20260905230509 | -17 | 202 | 0.0 | 6.4 | 0.00 | 0.00 | 0.00 | 1013.2 | |
| 20260905230007 | -17 | 202 | 0.0 | 6.4 | 0.00 | 0.00 | 0.00 | 1013.5 | |
| 20260905225502 | -17 | 243 | 1.6 | 3.2 | 0.00 | 0.00 | 0.00 | 1013.3 | |
| 20260905224957 | -17 | 195 | 3.2 | 4.8 | 0.00 | 0.00 | 0.00 | 1013.5 | |
| 20260905224452 | -17 | 195 | 3.2 | 4.8 | 0.00 | 0.00 | 0.00 | 1013.2 | |
| 20260905223951 | -17 | 195 | 3.2 | 4.8 | 0.00 | 0.00 | 0.00 | 1013.3 | |
| 20260905223449 | -17 | 195 | 3.2 | 4.8 | 0.00 | 0.00 | 0.00 | 1013.5 | |
| 20260905222944 | -17 | 195 | 3.2 | 4.8 | 0.00 | 0.00 | 0.00 | 1013.3 | |
| 20260905222444 | -17 | 195 | 3.2 | 4.8 | 0.00 | 0.00 | 0.00 | 1013.5 | |
| 20260905221939 | -17 | 164 | 3.2 | 4.8 | 0.00 | 0.00 | 0.00 | 1013.5 | |
| 20260905221436 | -17 | 204 | 3.2 | 4.8 | 0.00 | 0.00 | 0.00 | 1013.5 | |
| 20260905220932 | -17 | 148 | 3.2 | 4.8 | 0.00 | 0.00 | 0.00 | 1013.6 | |
| 20260905220428 | -17 | 289 | 1.6 | 3.2 | 0.00 | 0.00 | 0.00 | 1013.7 | |
| 20260905215927 | -17 | 190 | 4.8 | 9.7 | 0.00 | 0.00 | 0.00 | 1013.6 | |
| 20260905215422 | -17 | 185 | 3.2 | 8.0 | 0.00 | 0.00 | 0.00 | 1013.5 | |
| 20260905214918 | -17 | 185 | 3.2 | 8.0 | 0.00 | 0.00 | 0.00 | 1013.6 | |
| 20260905214414 | -17 | 193 | 3.2 | 6.4 | 0.00 | 0.00 | 0.00 | 1013.6 | |
| 20260905213908 | -17 | 218 | 0.0 | 0.0 | 0.00 | 0.00 | 0.00 | 1013.7 | |
| 20260905213405 | -17 | 0.0 | 0.0 | 0.00 | 0.00 | 0.00 | 1013.6 | ||
| 20260905212900 | -17 | 0.0 | 0.0 | 0.00 | 0.00 | 0.00 | 1013.9 | ||
| 20260905212354 | -17 | 0.0 | 0.0 | 0.00 | 0.00 | 0.00 | 1013.8 | ||
| 20260905211854 | -17 | 0.0 | 0.0 | 0.00 | 0.00 | 0.00 | 1014.0 | ||
| 20260905211349 | -17 | 212 | 1.6 | 3.2 | 0.00 | 0.00 | 0.00 | 1014.0 | |
| 20260905210846 | -17 | 212 | 1.6 | 3.2 | 0.00 | 0.00 | 0.00 | 1014.0 | |
| 20260905210345 | -17 | 212 | 1.6 | 3.2 | 0.00 | 0.00 | 0.00 | 1014.2 | |
| 20260905205844 | -17 | 212 | 1.6 | 3.2 | 0.00 | 0.00 | 0.00 | 1014.2 | |
| 20260905205339 | -17 | 212 | 1.6 | 3.2 | 0.00 | 0.00 | 0.00 | 1014.4 | |
| 20260905204838 | -17 | 212 | 1.6 | 3.2 | 0.00 | 0.00 | 0.00 | 1014.5 | |
| 20260905204335 | -17 | 212 | 1.6 | 3.2 | 0.00 | 0.00 | 0.00 | 1014.7 | |
| 20260905203833 | -17 | 212 | 1.6 | 3.2 | 0.00 | 0.00 | 0.00 | 1014.7 | |
| 20260905203330 | -17 | 212 | 1.6 | 3.2 | 0.00 | 0.00 | 0.00 | 1014.7 | |
| 20260905202825 | -17 | 212 | 1.6 | 3.2 | 0.00 | 0.00 | 0.00 | 1014.7 | |
| 20260905202320 | -17 | 212 | 1.6 | 3.2 | 0.00 | 0.00 | 0.00 | 1014.8 | |
| 20260905201815 | -17 | 212 | 1.6 | 3.2 | 0.00 | 0.00 | 0.00 | 1014.8 | |
| 20260905201310 | -17 | 254 | 3.2 | 8.0 | 0.00 | 0.00 | 0.00 | 1014.9 | |
| 20260905200805 | -17 | 254 | 3.2 | 8.0 | 0.00 | 0.00 | 0.00 | 1014.7 | |
| 20260905200301 | -17 | 254 | 3.2 | 8.0 | 0.00 | 0.00 | 0.00 | 1014.9 | |
| 20260905195759 | -17 | 240 | 1.6 | 4.8 | 0.00 | 0.00 | 0.00 | 1015.1 | |
| 20260905195254 | -17 | 149 | 8.0 | 9.7 | 0.00 | 0.00 | 0.00 | 1015.3 | |
| 20260905194749 | -17 | 218 | 3.2 | 11.3 | 0.00 | 0.00 | 0.00 | 1015.4 | |
| 20260905194249 | -17 | 312 | 1.6 | 3.2 | 0.00 | 0.00 | 0.00 | 1015.3 | |
| 20260905193743 | -17 | 164 | 3.2 | 4.8 | 0.00 | 0.00 | 0.00 | 1015.4 | |
| 20260905193238 | -17 | 235 | 4.8 | 4.8 | 0.00 | 0.00 | 0.00 | 1015.3 | |
| 20260905192733 | -17 | 235 | 4.8 | 4.8 | 0.00 | 0.00 | 0.00 | 1015.6 | |
| 20260905192230 | -17 | 235 | 4.8 | 4.8 | 0.00 | 0.00 | 0.00 | 1015.7 | |
| 20260905191729 | -17 | 283 | 6.4 | 6.4 | 0.00 | 0.00 | 0.00 | 1015.8 | |
| 20260905191227 | -17 | 193 | 4.8 | 6.4 | 0.00 | 0.00 | 0.00 | 1016.0 | |
| 20260905190726 | -17 | 193 | 4.8 | 6.4 | 0.00 | 0.00 | 0.00 | 1016.3 | |
| 20260905190225 | -17 | 235 | 3.2 | 4.8 | 0.00 | 0.00 | 0.00 | 1016.1 | |
| 20260905185724 | -17 | 235 | 3.2 | 4.8 | 0.00 | 0.00 | 0.00 | 1016.4 | |
| 20260905185219 | -17 | 158 | 0.0 | 3.2 | 0.00 | 0.00 | 0.00 | 1016.2 | |
| 20260905184719 | -17 | 158 | 0.0 | 3.2 | 0.00 | 0.00 | 0.00 | 1016.4 | |
| 20260905184218 | -17 | 229 | 4.8 | 6.4 | 0.00 | 0.00 | 0.00 | 1016.5 | |
| 20260905183712 | -17 | 228 | 4.8 | 6.4 | 0.00 | 0.00 | 0.00 | 1016.6 | |
| 20260905183208 | -17 | 156 | 3.2 | 8.0 | 0.00 | 0.00 | 0.00 | 1016.7 | |
| 20260905182707 | -17 | 156 | 3.2 | 8.0 | 0.00 | 0.00 | 0.00 | 1016.9 | |
| 20260905182207 | -17 | 203 | 0.0 | 3.2 | 0.00 | 0.00 | 0.00 | 1016.8 | |
| 20260905181702 | -17 | 203 | 0.0 | 3.2 | 0.00 | 0.00 | 0.00 | 1016.9 | |
| 20260905181201 | -17 | 203 | 0.0 | 3.2 | 0.00 | 0.00 | 0.00 | 1017.0 | |
| 20260905180655 | -17 | 203 | 0.0 | 3.2 | 0.00 | 0.00 | 0.00 | 1017.1 | |
| 20260905180152 | -17 | 167 | 4.8 | 6.4 | 0.00 | 0.00 | 0.00 | 1017.0 | |
| 20260905175650 | -17 | 93 | 6.4 | 8.0 | 0.00 | 0.00 | 0.00 | 1017.4 | |
| 20260905175146 | -17 | 93 | 6.4 | 8.0 | 0.00 | 0.00 | 0.00 | 1017.3 | |
| 20260905174641 | -17 | 227 | 4.8 | 6.4 | 0.00 | 0.00 | 0.00 | 1017.6 | |
| 20260905174137 | -17 | 227 | 4.8 | 8.0 | 0.00 | 0.00 | 0.00 | 1017.6 | |
| 20260905173632 | -17 | 189 | 3.2 | 4.8 | 0.00 | 0.00 | 0.00 | 1017.6 | |
| 20260905173128 | -17 | 175 | 4.8 | 9.7 | 0.00 | 0.00 | 0.00 | 1017.6 | |
| 20260905172627 | -17 | 198 | 3.2 | 8.0 | 0.00 | 0.00 | 0.00 | 1018.0 | |
| 20260905172122 | -17 | 254 | 1.6 | 6.4 | 0.00 | 0.00 | 0.00 | 1018.1 | |
| 20260905171618 | -17 | 138 | 6.4 | 8.0 | 0.00 | 0.00 | 0.00 | 1017.9 | |
| 20260905171114 | -17 | 155 | 4.8 | 6.4 | 0.00 | 0.00 | 0.00 | 1018.0 | |
| 20260905170610 | -17 | 213 | 1.6 | 6.4 | 0.00 | 0.00 | 0.00 | 1018.0 | |
| 20260905170105 | -17 | 271 | 1.6 | 6.4 | 0.00 | 0.00 | 0.00 | 1018.1 | |
| 20260905165600 | -17 | 329 | 1.6 | 4.8 | 0.00 | 0.00 | 0.00 | 1018.2 | |
| 20260905165055 | -17 | 220 | 3.2 | 4.8 | 0.00 | 0.00 | 0.00 | 1018.2 | |
| 20260905164549 | -17 | 236 | 0.0 | 8.0 | 0.00 | 0.00 | 0.00 | 1018.4 | |
| 20260905164044 | -17 | 235 | 0.0 | 1.6 | 0.00 | 0.00 | 0.00 | 1018.5 | |
| 20260905163541 | -17 | 214 | 4.8 | 8.0 | 0.00 | 0.00 | 0.00 | 1018.3 | |
| 20260905163036 | -17 | 224 | 0.0 | 3.2 | 0.00 | 0.00 | 0.00 | 1018.5 | |
| 20260905162533 | -17 | 227 | 4.8 | 12.9 | 0.00 | 0.00 | 0.00 | 1018.4 | |
| 20260905162027 | -17 | 210 | 1.6 | 3.2 | 0.00 | 0.00 | 0.00 | 1018.3 | |
| 20260905161526 | -17 | 142 | 0.0 | 3.2 | 0.00 | 0.00 | 0.00 | 1018.4 | |
| 20260905161024 | -17 | 297 | 0.0 | 3.2 | 0.00 | 0.00 | 0.00 | 1018.4 | |
| 20260905160518 | -17 | 265 | 1.6 | 8.0 | 0.00 | 0.00 | 0.00 | 1018.1 | |
| 20260905160018 | -17 | 222 | 3.2 | 3.2 | 0.00 | 0.00 | 0.00 | 1018.4 | |
| 20260905155517 | -17 | 230 | 3.2 | 6.4 | 0.00 | 0.00 | 0.00 | 1018.4 | |
| 20260905155016 | -17 | 229 | 3.2 | 6.4 | 0.00 | 0.00 | 0.00 | 1018.2 | |
| 20260905154511 | -17 | 24 | 3.2 | 6.4 | 0.00 | 0.00 | 0.00 | 1018.4 | |
| 20260905154007 | -17 | 229 | 0.0 | 6.4 | 0.00 | 0.00 | 0.00 | 1018.3 | |
| 20260905153503 | -17 | 212 | 3.2 | 8.0 | 0.00 | 0.00 | 0.00 | 1018.3 | |
| 20260905153002 | -17 | 212 | 0.0 | 4.8 | 0.00 | 0.00 | 0.00 | 1018.2 | |
| 20260905152502 | -17 | 304 | 1.6 | 6.4 | 0.00 | 0.00 | 0.00 | 1018.6 | |
| 20260905151957 | -17 | 234 | 4.8 | 6.4 | 0.00 | 0.00 | 0.00 | 1018.2 | |
| 20260905151452 | -17 | 254 | 3.2 | 4.8 | 0.00 | 0.00 | 0.00 | 1018.4 | |
| 20260905150947 | -17 | 241 | 1.6 | 4.8 | 0.00 | 0.00 | 0.00 | 1018.3 | |
| 20260905150442 | -17 | 282 | 3.2 | 6.4 | 0.00 | 0.00 | 0.00 | 1018.3 | |
| 20260905145938 | -17 | 253 | 3.2 | 4.8 | 0.00 | 0.00 | 0.00 | 1018.4 | |
| 20260905145433 | -17 | 239 | 3.2 | 4.8 | 0.00 | 0.00 | 0.00 | 1018.3 | |
| 20260905144933 | -17 | 255 | 3.2 | 3.2 | 0.00 | 0.00 | 0.00 | 1018.2 | |
| 20260905144428 | -17 | 255 | 3.2 | 3.2 | 0.00 | 0.00 | 0.00 | 1018.4 | |
| 20260905143927 | -17 | 282 | 3.2 | 8.0 | 0.00 | 0.00 | 0.00 | 1018.5 | |
| 20260905143421 | -17 | 282 | 3.2 | 8.0 | 0.00 | 0.00 | 0.00 | 1018.6 | |
| 20260905142921 | -17 | 282 | 3.2 | 8.0 | 0.00 | 0.00 | 0.00 | 1018.6 | |
| 20260905142420 | -17 | 230 | 1.6 | 1.6 | 0.00 | 0.00 | 0.00 | 1018.6 | |
| 20260905141916 | -17 | 230 | 1.6 | 1.6 | 0.00 | 0.00 | 0.00 | 1018.6 | |
| 20260905141411 | -17 | 230 | 1.6 | 1.6 | 0.00 | 0.00 | 0.00 | 1018.4 | |
| 20260905140906 | -17 | 230 | 1.6 | 1.6 | 0.00 | 0.00 | 0.00 | 1018.4 | |
| 20260905140401 | -17 | 230 | 1.6 | 1.6 | 0.00 | 0.00 | 0.00 | 1018.3 | |
| 20260905135900 | -17 | 201 | 1.6 | 4.8 | 0.00 | 0.00 | 0.00 | 1018.3 | |
| 20260905135356 | -17 | 195 | 0.0 | 6.4 | 0.00 | 0.00 | 0.00 | 1018.4 | |
| 20260905134851 | -17 | 215 | 3.2 | 4.8 | 0.00 | 0.00 | 0.00 | 1018.5 | |
| 20260905134350 | -17 | 229 | 3.2 | 4.8 | 0.00 | 0.00 | 0.00 | 1018.2 | |
| 20260905133845 | -17 | 167 | 3.2 | 3.2 | 0.00 | 0.00 | 0.00 | 1018.3 | |
| 20260905133340 | -17 | 167 | 3.2 | 3.2 | 0.00 | 0.00 | 0.00 | 1018.1 | |
| 20260905132839 | -17 | 167 | 3.2 | 3.2 | 0.00 | 0.00 | 0.00 | 1018.3 | |
| 20260905132335 | -17 | 164 | 0.0 | 1.6 | 0.00 | 0.00 | 0.00 | 1018.2 | |
| 20260905131834 | -17 | 221 | 0.0 | 1.6 | 0.00 | 0.00 | 0.00 | 1018.1 | |
| 20260905131330 | -17 | 219 | 0.0 | 0.0 | 0.00 | 0.00 | 0.00 | 1017.9 | |
| 20260905130825 | -17 | 216 | 1.6 | 3.2 | 0.00 | 0.00 | 0.00 | 1017.8 | |
| 20260905130324 | -17 | 202 | 0.0 | 0.0 | 0.00 | 0.00 | 0.00 | 1017.8 | |
| 20260905125820 | -17 | 202 | 0.0 | 0.0 | 0.00 | 0.00 | 0.00 | 1017.8 | |
| 20260905125314 | -17 | 217 | 0.0 | 0.0 | 0.00 | 0.00 | 0.00 | 1017.6 | |
| 20260905124811 | -17 | 217 | 0.0 | 0.0 | 0.00 | 0.00 | 0.00 | 1017.8 | |
| 20260905124307 | -17 | 217 | 0.0 | 1.6 | 0.00 | 0.00 | 0.00 | 1017.5 | |
| 20260905123801 | -17 | 217 | 0.0 | 1.6 | 0.00 | 0.00 | 0.00 | 1017.5 | |
| 20260905123259 | -17 | 217 | 0.0 | 1.6 | 0.00 | 0.00 | 0.00 | 1017.4 | |
| 20260905122758 | -17 | 205 | 0.0 | 1.6 | 0.00 | 0.00 | 0.00 | 1017.5 | |
| 20260905122257 | -17 | 117 | 0.0 | 0.0 | 0.00 | 0.00 | 0.00 | 1017.4 | |
| 20260905121753 | -17 | 217 | 0.0 | 1.6 | 0.00 | 0.00 | 0.00 | 1017.4 | |
| 20260905121249 | -17 | 242 | 0.0 | 0.0 | 0.00 | 0.00 | 0.00 | 1017.3 | |
| 20260905120748 | -17 | 124 | 0.0 | 0.0 | 0.00 | 0.00 | 0.00 | 1017.1 | |
| 20260905120242 | -17 | 205 | 0.0 | 1.6 | 0.00 | 0.00 | 0.00 | 1017.2 | |
| 20260905115737 | -17 | 154 | 0.0 | 0.0 | 0.00 | 0.00 | 0.00 | 1016.9 | |
| 20260905115237 | -17 | 176 | 0.0 | 1.6 | 0.00 | 0.00 | 0.00 | 1017.0 | |
| 20260905114731 | -17 | 217 | 0.0 | 0.0 | 0.00 | 0.00 | 0.00 | 1017.1 | |
| 20260905114230 | -17 | 217 | 0.0 | 0.0 | 0.00 | 0.00 | 0.00 | 1017.0 | |
| 20260905113730 | -17 | 195 | 0.0 | 0.0 | 0.00 | 0.00 | 0.00 | 1017.2 | |
| 20260905113226 | -17 | 217 | 0.0 | 0.0 | 0.00 | 0.00 | 0.00 | 1016.9 | |
| 20260905112725 | -17 | 179 | 0.0 | 1.6 | 0.00 | 0.00 | 0.00 | 1017.0 | |
| 20260905112221 | -17 | 179 | 0.0 | 1.6 | 0.00 | 0.00 | 0.00 | 1017.1 | |
| 20260905111721 | -17 | 154 | 0.0 | 0.0 | 0.00 | 0.00 | 0.00 | 1016.9 | |
| 20260905111215 | -17 | 195 | 0.0 | 0.0 | 0.00 | 0.00 | 0.00 | 1016.8 | |
| 20260905110715 | -17 | 309 | 0.0 | 0.0 | 0.00 | 0.00 | 0.00 | 1016.8 | |
| 20260905110209 | -17 | 297 | 0.0 | 1.6 | 0.00 | 0.00 | 0.00 | 1016.8 | |
| 20260905105705 | -17 | 343 | 0.0 | 1.6 | 0.00 | 0.00 | 0.00 | 1016.8 | |
| 20260905105203 | -17 | 230 | 0.0 | 0.0 | 0.00 | 0.00 | 0.00 | 1016.6 | |
| 20260905104658 | -17 | 195 | 0.0 | 1.6 | 0.00 | 0.00 | 0.00 | 1016.8 | |
| 20260905104154 | -17 | 164 | 0.0 | 1.6 | 0.00 | 0.00 | 0.00 | 1016.8 | |
| 20260905103649 | -17 | 205 | 0.0 | 0.0 | 0.00 | 0.00 | 0.00 | 1016.8 | |
| 20260905103145 | -17 | 205 | 0.0 | 0.0 | 0.00 | 0.00 | 0.00 | 1016.8 | |
| 20260905102641 | -17 | 205 | 0.0 | 0.0 | 0.00 | 0.00 | 0.00 | 1016.8 | |
| 20260905102137 | -17 | 205 | 0.0 | 0.0 | 0.00 | 0.00 | 0.00 | 1016.6 | |
| 20260905101635 | -17 | 336 | 0.0 | 0.0 | 0.00 | 0.00 | 0.00 | 1016.8 | |
| 20260905101134 | -17 | 336 | 0.0 | 0.0 | 0.00 | 0.00 | 0.00 | 1016.7 | |
| 20260905100630 | -17 | 336 | 0.0 | 0.0 | 0.00 | 0.00 | 0.00 | 1016.8 | |
| 20260905100125 | -17 | 336 | 0.0 | 0.0 | 0.00 | 0.00 | 0.00 | 1016.8 | |
| 20260905095619 | -17 | 255 | 0.0 | 0.0 | 0.00 | 0.00 | 0.00 | 1016.8 | |
| 20260905095114 | -17 | 255 | 0.0 | 0.0 | 0.00 | 0.00 | 0.00 | 1016.7 | |
| 20260905094610 | -17 | 315 | 0.0 | 0.0 | 0.00 | 0.00 | 0.00 | 1016.6 | |
| 20260905094108 | -17 | 315 | 0.0 | 0.0 | 0.00 | 0.00 | 0.00 | 1016.8 | |
| 20260905093603 | -17 | 309 | 0.0 | 0.0 | 0.00 | 0.00 | 0.00 | 1016.5 | |
| 20260905093100 | -17 | 309 | 0.0 | 0.0 | 0.00 | 0.00 | 0.00 | 1016.5 | |
| 20260905092559 | -17 | 221 | 0.0 | 1.6 | 0.00 | 0.00 | 0.00 | 1016.5 | |
| 20260905092055 | -17 | 247 | 0.0 | 3.2 | 0.00 | 0.00 | 0.00 | 1016.7 | |
| 20260905091554 | -17 | 195 | 0.0 | 1.6 | 0.00 | 0.00 | 0.00 | 1016.6 | |
| 20260905091049 | -17 | 231 | 0.0 | 1.6 | 0.00 | 0.00 | 0.00 | 1016.6 | |
| 20260905090549 | -17 | 120 | 1.6 | 3.2 | 0.00 | 0.00 | 0.00 | 1016.7 | |
| 20260905090044 | -17 | 44 | 0.0 | 1.6 | 0.00 | 0.00 | 0.00 | 1016.9 | |
| 20260905085542 | -17 | 269 | 0.0 | 0.0 | 0.00 | 0.00 | 0.00 | 1016.8 | |
| 20260905085039 | -17 | 217 | 0.0 | 1.6 | 0.00 | 0.00 | 0.00 | 1016.6 | |
| 20260905084538 | -17 | 202 | 0.0 | 0.0 | 0.00 | 0.00 | 0.00 | 1016.7 | |
| 20260905084033 | -17 | 244 | 0.0 | 1.6 | 0.00 | 0.00 | 0.00 | 1016.7 | |
| 20260905083528 | -17 | 309 | 0.0 | 1.6 | 0.00 | 0.00 | 0.00 | 1016.8 | |
| 20260905083025 | -17 | 230 | 0.0 | 0.0 | 0.00 | 0.00 | 0.00 | 1016.8 | |
| 20260905082520 | -17 | 209 | 0.0 | 1.6 | 0.00 | 0.00 | 0.00 | 1016.8 | |
| 20260905082016 | -17 | 230 | 0.0 | 0.0 | 0.00 | 0.00 | 0.00 | 1016.8 | |
| 20260905081515 | -17 | 217 | 0.0 | 1.6 | 0.00 | 0.00 | 0.00 | 1016.7 | |
| 20260905081015 | -17 | 197 | 0.0 | 1.6 | 0.00 | 0.00 | 0.00 | 1016.9 | |
| 20260905080509 | -17 | 205 | 0.0 | 3.2 | 0.00 | 0.00 | 0.00 | 1016.9 | |
| 20260905080004 | -17 | 217 | 0.0 | 1.6 | 0.00 | 0.00 | 0.00 | 1016.9 | |
| 20260905075457 | -17 | 211 | 0.0 | 1.6 | 0.00 | 0.00 | 0.00 | 1016.9 | |
| 20260905074956 | -17 | 138 | 4.8 | 4.8 | 0.00 | 0.00 | 0.00 | 1017.0 | |
| 20260905074452 | -17 | 221 | 0.0 | 3.2 | 0.00 | 0.00 | 0.00 | 1016.9 | |
| 20260905073948 | -17 | 209 | 1.6 | 3.2 | 0.00 | 0.00 | 0.00 | 1016.8 | |
| 20260905073442 | -17 | 168 | 0.0 | 3.2 | 0.00 | 0.00 | 0.00 | 1017.0 | |
| 20260905072938 | -17 | 204 | 1.6 | 4.8 | 0.00 | 0.00 | 0.00 | 1016.8 | |
| 20260905072432 | -17 | 217 | 1.6 | 3.2 | 0.00 | 0.00 | 0.00 | 1016.9 | |
| 20260905071928 | -17 | 156 | 3.2 | 4.8 | 0.00 | 0.00 | 0.00 | 1017.1 | |
| 20260905071426 | -17 | 202 | 1.6 | 3.2 | 0.00 | 0.00 | 0.00 | 1017.1 | |
| 20260905070924 | -17 | 209 | 0.0 | 1.6 | 0.00 | 0.00 | 0.00 | 1017.1 | |
| 20260905070421 | -17 | 195 | 0.0 | 3.2 | 0.00 | 0.00 | 0.00 | 1017.2 | |
| 20260905065920 | -17 | 173 | 0.0 | 3.2 | 0.00 | 0.00 | 0.00 | 1017.2 | |
| 20260905065419 | -17 | 212 | 0.0 | 3.2 | 0.00 | 0.00 | 0.00 | 1017.2 | |
| 20260905064914 | -17 | 284 | 0.0 | 0.0 | 0.00 | 0.00 | 0.00 | 1017.1 | |
| 20260905064409 | -17 | 164 | 0.0 | 1.6 | 0.00 | 0.00 | 0.00 | 1017.2 | |
| 20260905063909 | -17 | 236 | 1.6 | 3.2 | 0.00 | 0.00 | 0.00 | 1017.3 | |
| 20260905063404 | -17 | 213 | 0.0 | 3.2 | 0.00 | 0.00 | 0.00 | 1017.3 | |
| 20260905062900 | -17 | 218 | 1.6 | 4.8 | 0.00 | 0.00 | 0.00 | 1017.3 | |
| 20260905062354 | -17 | 187 | 0.0 | 3.2 | 0.00 | 0.00 | 0.00 | 1017.1 | |
| 20260905061849 | -17 | 230 | 0.0 | 4.8 | 0.00 | 0.00 | 0.00 | 1017.4 | |
| 20260905061343 | -17 | 171 | 3.2 | 8.0 | 0.00 | 0.00 | 0.00 | 1017.3 | |
| 20260905060838 | -17 | 198 | 1.6 | 6.4 | 0.00 | 0.00 | 0.00 | 1017.3 | |
| 20260905060335 | -17 | 181 | 1.6 | 3.2 | 0.00 | 0.00 | 0.00 | 1017.4 | |
| 20260905055834 | -17 | 180 | 0.0 | 3.2 | 0.00 | 0.00 | 0.00 | 1017.5 | |
| 20260905055329 | -17 | 152 | 3.2 | 3.2 | 0.00 | 0.00 | 0.00 | 1017.4 | |
| 20260905054828 | -17 | 204 | 1.6 | 3.2 | 0.00 | 0.00 | 0.00 | 1017.4 | |
| 20260905054325 | -17 | 189 | 3.2 | 8.0 | 0.00 | 0.00 | 0.00 | 1017.4 | |
| 20260905053824 | -17 | 205 | 1.6 | 6.4 | 0.00 | 0.00 | 0.00 | 1017.4 |